weather.gov     
National Weather Service

Regional Weather Roundup
NWS Homepage
This page is being discontinued on March 12, 2014.
The same data is available at this site. Please update your bookmarks.
Thank you, and we apologize for the inconvenience.
Please send an email to SR-SRH.Webmaster@noaa.gov with any concerns.


Current Version
Previous Version:    01  02  03  04  05  06  07  08  09  10  11  12  13  14  15  16  17  18  19  20  21  22  23  24  25  26  27  
[Printable]
396
ASUS41 KLWX 210610
RWRLWX

REGIONAL WEATHER ROUNDUP
NATIONAL WEATHER SERVICE BALTIMORE MD/WASHINGTON DC
200 AM EDT THU AUG 21 2014

Note: "FAIR" indicates few or no clouds below 12,000 feet
with no significant weather and/or obstructions to visibility.
 TC=TEMPERATURE CELSIUS

 * =Non NWS site. Station does not report precipitation (e.g. rain,
    snow, etc.), thunder, or fog.

DCZ001-MDZ009-015-VAZ040>042-051-053>054-210700-
WASHINGTON METRO
  /KDAA//-FT BELVOIR

CITY           SKY/WX    TMP DP  RH WIND       PRES   REMARKS
WASHINGTON NAT FAIR      73  65  75 CALM      30.01F
DULLES         FAIR      65  64  97 SE3       30.00F
ANDREWS AFB    FAIR      68  65  89 E2        30.01F
QUANTICO       FAIR      70  67  90 CALM      30.01S
COLLEGE PARK*  FAIR      68  68 100 CALM      30.00F
LEESBURG*      FAIR      64  64 100 NW3       30.02F
MANASSAS*      FAIR      66  66 100 CALM      30.01S
GAITHERSBURG*  FAIR      64  63  94 CALM      30.05F

$$

MDZ006>007-011-014-210700-
BALTIMORE METRO

CITY           SKY/WX    TMP DP  RH WIND       PRES   REMARKS
BWI AIRPORT    FAIR      67  64  90 CALM      30.00F
MD SCIENCE CTR   N/A     74  64  71 MISG      30.01F
MARTIN STATE   FAIR      72  68  88 CALM      30.02S
ANNAPOLIS      MOCLDY    73  68  84 SE6       30.01S
FORT MEADE*    FAIR      63  61  94 E5        30.03F

$$

MDZ012-015-019>023-210700-
MARYLAND EASTERN SHORE

CITY           SKY/WX    TMP DP  RH WIND       PRES   REMARKS
OCEAN CITY     FAIR      73  67  81 S3        30.02F
SALISBURY      CLOUDY    69  65  86 W3        30.02S
BAY BRIDGE AP*   N/A     72  64  78 SE7       30.01S
CAMBRIDGE*     CLOUDY    72  66  83 CALM      30.01F
EASTON*        CLOUDY    71  67  87 CALM      30.05F

$$

MDZ017>025-210700-
SOUTHERN MARYLAND

CITY           SKY/WX    TMP DP  RH WIND       PRES   REMARKS
PATUXENT RIVER NOT AVBL
ST INIGOES     CLOUDY    75  68  78 SE6       29.99F
LEONARDTOWN*   CLOUDY    70  68  94 CALM      30.02S

$$

MDZ003>005-210700-
NORTH CENTRAL MARYLAND

CITY           SKY/WX    TMP DP  RH WIND       PRES   REMARKS
FREDERICK*     FOG      N/A N/A N/A CALM      30.03F VSB 1
HAGERSTOWN APT FAIR      69  64  84 CALM      30.01F
WESTMINSTER*   FAIR      70  64  83 SE5       30.02F

$$

MDZ501>502-210700-
WESTERN MARYLAND

CITY           SKY/WX    TMP DP  RH WIND       PRES   REMARKS
OAKLAND*       MOCLDY    64 N/A N/A SW6       30.11S
CUMBERLAND*    FAIR      70  66  88 CALM      30.05S

$$

VAZ025>031-210700-
SHENANDOAH VALLEY

CITY           SKY/WX    TMP DP  RH WIND       PRES   REMARKS
WINCHESTER*    FOG       66  64  94 CALM      30.01F VSB 1/2
STAUNTON*      FOG       65  63  95 CALM      30.05F VSB 1/2

$$

WVZ021-048>050-054>055-210700-
EASTERN WEST VIRGINIA PANHANDLE

CITY           SKY/WX    TMP DP  RH WIND       PRES   REMARKS
MARTINSBURG    FAIR      66  63  90 CALM      30.01F FOG
PETERSBURG*    NOT AVBL

$$

VAZ036>039-050-210700-
CENTRAL FOOTHILLS

CITY           SKY/WX    TMP DP  RH WIND       PRES   REMARKS
CHARLOTTESVILL FAIR      66  66 100 S3        30.00F
ORANGE*        FAIR      68  66  94 SW6       30.01S

$$

VAZ055>057-210700-
NORTH AND CENTRAL PIEDMONT

CITY           SKY/WX    TMP DP  RH WIND       PRES   REMARKS
FREDERICKSBRG* CLOUDY    69  69 100 CALM      30.01R FOG
STAFFORD*      FOG       65  65 100 CALM      30.05R VSB 1

$$

NCZ024-NYZ072-PAZ021-071-VAZ022-071-210700-
OTHER REGIONAL OBSERVATIONS

CITY           SKY/WX    TMP DP  RH WIND       PRES   REMARKS
NEW YORK CITY  CLOUDY    72  60  66 MISG      30.07R
PHILADELPHIA   MOCLDY    72  64  76 SE3       30.03F
PITTSBURGH     FAIR      67  66  97 CALM      30.00S
ROANOKE        MOCLDY    69  66  90 NW3       30.06S
RICHMOND       CLOUDY    74  69  85 CALM      30.00S
RALEIGH        FAIR      75  71  87 S3        30.01F

$$

ANZ530>537-210700-
MARINE OBSERVATIONS

STATION/POSITION TIME  TEMP    WIND        PRES
                       AIR SEA DIR/SP/G
                 (UTC) (F)     (DEG/KT/KT) (MB)
THOMAS PT LIGHT  0600   74 78  150/ 10/ 11 1016.7S
BALT KEY BRIDGE  0600   75     140/  5/  6 1015.9F
COVE POINT       0600   74     160/ 10/ 11 1015.7F
LEWISETTA        0600   75 80  200/  7/  8 1015.6F
SOLOMONS ISLAND  0600      80                N/A
PINEY POINT      0600          180/  8/  9   N/A

$$





U.S. Dept. of Commerce
NOAA National Weather Service
1325 East West Highway
Silver Spring, MD 20910
E-mail: w-nws.webmaster@noaa.gov
Page last modified: May 16, 2007
NATIONAL WEATHER SERVICE: for Safety, for Work, for Fun - FOR LIFE